Temperature
6 6 6 6 6 6 5 5 5 4 4 4 5 5 5 5 5 5 5 4 4 5 4 4 4 4 4 4 4 4 4 4 4 4 4 4 4 4
6 6 6 6 5 5 5 5 4 4 4 4 4 4 4 4 4 4 4 4 4 4 4 4 4 4 4 4 3 3 3 3 3 3 3 3 3 3
5 5 5 5 5 4 4 4 4 4 4 3 4 4 4 4 4 4 4 4 4 4 4 4 3 3 3 3 3 3 3 3 3 3 3 3 3 3
5 5 5 4 4 4 4 4 4 3 3 3 3 3 4 4 3 3 4 3 3 3 3 3 3 3 3 2 2 2 2 2 3 3 3 3 3 3
4 4 4 4 4 4 3 3 3 3 3 3 3 3 3 3 3 3 3 3 3 3 3 2 2 2 2 2 2 2 2 2 2 2 2 2 2 2
3 3 3 3 3 3 3 3 2 3 3 2 2 2 3 3 3 3 3 3 3 3 2 2 2 2 2 2 1 1 1 2 2 2 2 2 2 2
3 3 3 3 2 2 2 2 2 2 2 2 2 2 2 2 2 2 2 2 2 2 2 2 2 2 1 1 1 1 1 1 1 1 1 1 1 1
2 2 2 2 2 2 2 2 2 2 2 2 2 1 2 2 2 1 1 1 1 1 1 2 1 1 1 1 1 0 0 0 1 1 1 1 1 1
2 2 2 1 1 1 1 1 1 1 1 1 1 1 1 1 1 1 1 1 1 1 1 1 1 1 1 0 0 0 -0 0 0 0 0 0 0 0
1 1 1 1 1 1 1 1 1 1 1 1 1 1 1 1 0 0 0 0 0 0 0 0 1 1 1 0 -0 -0 -0 -0 -0 -0 -0 -0 -0 -0
1 1 1 1 1 0 0 1 1 1 1 0 0 0 0 0 0 0 -0 -0 -0 -0 -1 -1 -0 -0 -0 0 -0 -1 -1 -1 -1 -1 -1 -1 -1 -1
1 1 0 0 0 0 0 0 0 0 0 0 0 0 0 -0 -0 -0 -0 -1 -1 -1 -1 -1 -1 -2 -1 -1 -1 -1 -1 -1 -1 -1 -1 -1 -1 -1
-0 0 0 -0 -0 -0 -0 -0 -0 -0 -0 -0 -0 -0 -0 -0 -1 -1 -1 -1 -1 -2 -2 -2 -2 -2 -2 -2 -1 -1 -1 -1 -1 -1 -1 -2 -2 -2
-0 -0 -0 -1 -1 -1 -1 -1 -1 -1 -1 -1 -1 -1 -1 -1 -1 -1 -1 -1 -2 -2 -2 -2 -2 -2 -2 -2 -2 -2 -2 -2 -2 -2 -2 -2 -2 -2
-1 -1 -1 -1 -1 -1 -1 -1 -1 -1 -1 -1 -1 -1 -1 -1 -1 -2 -2 -2 -2 -2 -2 -2 -3 -2 -2 -3 -3 -2 -2 -2 -2 -2 -2 -3 -3 -3
-1 -1 -1 -2 -2 -2 -2 -2 -2 -2 -2 -2 -2 -2 -2 -2 -2 -2 -2 -2 -2 -2 -2 -3 -3 -3 -3 -3 -3 -3 -3 -3 -3 -3 -3 -3 -3 -3
-2 -2 -2 -2 -2 -2 -2 -3 -3 -3 -3 -2 -3 -2 -2 -3 -3 -3 -3 -3 -3 -3 -3 -3 -3 -3 -3 -3 -3 -3 -3 -3 -3 -3 -3 -3 -3 -3
-2 -2 -3 -3 -3 -3 -3 -3 -3 -3 -3 -3 -3 -3 -3 -3 -3 -3 -4 -4 -3 -3 -3 -3 -3 -3 -3 -3 -4 -3 -3 -3 -3 -3 -3 -3 -3 -3
-3 -3 -3 -3 -4 -4 -4 -4 -4 -4 -4 -4 -4 -4 -4 -4 -4 -4 -4 -4 -4 -4 -4 -4 -4 -4 -4 -4 -4 -4 -4 -3 -3 -3 -3 -4 -4 -3
-3 -4 -4 -4 -4 -4 -4 -4 -4 -4 -4 -4 -4 -4 -5 -4 -5 -5 -4 -4 -4 -4 -4 -4 -4 -4 -4 -4 -4 -4 -4 -4 -4 -4 -4 -4 -4 -4
-4 -4 -4 -4 -4 -4 -5 -5 -5 -5 -5 -5 -5 -5 -5 -5 -5 -5 -5 -5 -5 -5 -4 -4 -4 -4 -4 -4 -5 -4 -4 -4 -4 -4 -4 -4 -4 -4
-4 -4 -4 -4 -5 -5 -5 -5 -5 -5 -5 -5 -5 -5 -5 -5 -5 -5 -5 -5 -5 -5 -5 -5 -5 -4 -4 -5 -5 -4 -4 -4 -4 -5 -5 -5 -5 -5
-4 -5 -5 -5 -5 -5 -5 -5 -5 -5 -6 -6 -6 -5 -6 -6 -5 -5 -5 -5 -5 -5 -5 -5 -5 -5 -5 -5 -5 -5 -4 -4 -5 -5 -5 -5 -5 -5
Wind_Speed
3 3 2 1 1 1 0 1 2 2 3 2 1 1 1 2 3 3 4 5 6 6 6 6 7 7 7 8 9 9 10 10 10 10 10 9 10 10
2 2 2 1 1 1 1 1 1 2 3 2 1 1 1 3 4 4 5 6 6 7 6 6 6 6 7 7 8 9 9 10 10 10 10 10 10 10
1 2 2 2 1 1 1 1 1 1 2 2 1 1 1 2 3 4 4 4 5 6 7 6 7 7 7 8 8 9 9 10 10 10 10 10 10 9
1 1 1 1 2 1 1 1 1 1 2 3 2 1 2 2 2 3 3 4 5 6 7 6 7 7 7 8 8 9 9 9 9 10 10 10 10 10
1 1 1 1 1 1 1 1 2 1 1 2 2 1 1 1 2 3 3 3 4 5 5 5 6 7 7 7 8 8 9 9 9 9 9 10 10 10
1 2 1 1 2 2 2 2 2 2 1 1 2 1 1 1 1 2 3 3 3 4 5 6 6 6 6 7 7 7 8 9 9 9 9 9 10 11
1 2 2 2 2 2 2 2 2 2 2 2 2 2 1 1 2 2 3 3 3 2 2 3 4 4 5 6 6 7 8 8 8 9 9 10 10 11
2 2 2 2 3 3 3 3 3 3 3 3 3 3 3 2 2 2 2 3 3 2 2 4 2 2 4 4 6 7 7 8 8 8 9 9 10 11
3 2 2 2 2 2 3 4 4 4 4 3 4 4 3 3 3 3 3 3 4 3 2 4 2 3 4 6 7 7 7 8 8 8 9 9 10 11
3 3 3 3 3 3 3 3 3 4 4 4 4 4 4 4 5 4 4 3 3 2 1 3 2 3 4 5 6 6 7 7 8 9 9 9 10 11
3 3 3 3 4 4 3 3 3 3 4 5 5 5 5 4 3 1 1 1 3 3 1 1 2 3 3 3 5 6 7 7 8 9 9 9 10 10
2 3 4 4 4 4 3 3 4 4 3 2 3 4 3 4 4 4 4 2 2 3 2 1 1 1 3 2 2 4 5 7 9 9 10 10 10 7
2 2 3 4 5 5 4 4 5 4 2 2 2 2 2 2 3 3 4 3 3 3 3 1 1 1 2 3 3 3 3 4 5 7 9 10 9 7
3 3 3 4 5 5 4 4 4 3 1 1 2 2 2 3 3 3 4 5 6 6 5 4 2 2 2 3 4 3 3 4 4 4 5 8 8 9
2 3 4 4 4 3 4 3 2 2 2 2 2 3 3 3 2 2 3 3 3 3 4 4 2 3 3 3 3 3 3 3 3 3 4 4 4 5
3 3 3 3 2 2 2 2 2 2 2 3 3 3 2 2 2 1 2 2 1 2 3 3 3 3 3 3 3 4 3 2 3 3 3 4 5 5
1 1 1 1 1 1 1 2 2 2 2 2 2 2 2 2 2 1 1 2 2 2 2 2 2 3 3 3 3 4 3 3 3 3 3 4 4 5
1 1 2 2 2 2 2 2 2 2 2 3 3 3 3 3 3 2 2 2 3 3 2 1 1 2 2 2 4 4 3 3 3 3 2 3 5 4
2 2 2 2 2 2 2 2 2 2 2 3 3 3 3 3 3 3 3 3 3 3 2 1 1 1 3 4 3 4 3 3 3 3 3 3 4 5
3 3 3 3 3 3 3 3 2 2 2 3 3 3 3 3 3 4 4 4 4 3 3 2 3 3 4 4 3 3 5 3 2 3 3 3 3 5
3 3 3 3 3 3 3 3 3 3 3 3 3 4 4 3 4 4 4 5 4 3 4 4 4 4 2 1 2 2 3 4 4 3 2 2 3 3
3 3 3 3 3 3 3 3 3 3 3 3 3 4 4 4 4 4 4 4 4 4 4 3 2 2 2 2 3 3 3 3 4 4 4 3 2 2
3 3 3 3 3 3 3 3 3 3 3 3 3 3 3 3 4 4 4 4 3 3 3 2 1 1 1 2 2 2 2 3 2 3 3 5 6 7
Wind_Direction
177 177 185 205 205 200 182 177 192 250 259 251 255 258 284 284 295 290 294 296 304 305 307 316 322 324 325 325 323 324 325 324 322 320 316 316 316 317
179 167 181 198 197 205 203 225 214 216 251 252 256 267 299 302 294 292 291 297 304 304 305 310 315 318 321 320 321 323 323 323 322 321 321 316 315 315
147 181 196 196 200 212 205 224 245 211 249 285 302 289 237 271 297 293 292 288 292 304 305 303 310 313 315 315 317 319 320 321 322 321 321 319 318 319
171 169 208 187 199 210 197 219 248 241 228 268 292 280 264 254 278 286 294 289 287 294 300 301 309 314 314 314 316 319 320 321 321 320 319 321 321 320
188 189 212 180 212 211 198 218 241 265 246 246 271 274 278 284 296 298 295 292 296 294 291 303 314 322 322 324 323 324 324 325 323 324 325 325 327 326
189 193 194 198 219 221 219 226 228 230 236 245 261 265 282 289 275 289 303 305 301 301 298 300 304 314 317 323 330 332 334 334 335 336 335 334 333 331
200 196 200 201 216 223 229 220 213 214 219 237 261 277 291 293 275 276 294 308 298 295 298 293 293 294 301 306 313 321 329 332 335 337 338 336 334 331
219 235 227 215 224 231 240 231 216 211 217 227 245 250 258 258 267 289 301 310 293 288 305 296 281 287 281 285 300 312 322 328 332 335 336 335 334 331
217 224 242 236 228 233 247 246 241 242 231 221 233 239 238 238 234 249 260 267 274 275 292 282 278 281 284 289 294 304 317 323 328 330 330 330 331 331
219 216 218 226 231 229 233 236 240 244 244 232 231 238 235 225 219 232 248 271 296 278 265 267 283 290 297 287 285 296 309 316 324 327 327 326 330 329
230 222 221 226 240 235 229 238 250 261 271 259 257 259 267 264 250 216 256 289 295 283 243 250 287 310 294 274 287 303 308 312 317 320 322 324 325 325
245 235 235 243 245 236 225 228 241 254 264 286 274 267 259 251 245 215 209 239 283 274 239 237 266 327 300 279 276 291 301 305 309 314 316 319 322 322
241 242 247 254 251 254 248 237 251 255 244 250 256 256 255 247 248 241 221 220 238 258 239 221 262 269 259 290 291 275 277 291 299 304 308 313 316 317
245 242 244 254 258 259 254 261 263 265 244 254 264 262 261 262 261 259 252 244 240 245 235 226 243 249 267 285 287 294 291 281 283 294 301 307 309 311
261 268 268 264 261 260 262 259 253 246 243 253 261 270 269 262 268 278 276 267 268 263 240 239 241 244 247 263 277 288 302 295 280 297 303 303 301 304
265 270 272 265 273 284 283 268 256 246 242 248 259 264 272 270 261 270 283 284 283 295 289 269 258 242 255 264 265 279 284 281 300 304 302 300 294 289
254 257 251 250 255 259 261 257 252 262 265 260 258 267 275 278 281 277 275 279 261 276 300 318 298 284 262 243 261 270 274 288 287 303 313 306 300 293
215 223 231 234 241 248 254 261 254 249 251 254 255 256 261 263 273 279 270 259 261 262 266 282 330 338 327 289 240 258 269 277 289 292 300 298 302 306
224 231 237 240 245 251 254 260 261 257 256 253 255 259 264 265 269 267 260 264 268 264 259 241 244 261 275 284 278 242 257 287 296 296 288 283 286 296
234 235 239 239 241 244 248 254 260 265 266 259 257 257 255 258 263 264 258 259 267 269 259 238 229 235 246 263 274 280 258 258 278 289 297 296 294 294
238 239 240 241 244 246 248 252 253 255 263 269 263 261 258 255 257 261 259 261 261 258 255 252 250 255 252 246 286 302 298 269 266 272 293 306 314 321
234 237 239 239 241 243 248 249 251 254 257 258 263 264 259 255 258 258 256 256 254 258 261 263 242 213 213 242 268 286 310 324 317 300 280 269 264 275
237 238 239 239 240 239 242 247 248 251 256 260 262 264 266 267 264 258 258 255 256 258 259 250 236 234 239 239 259 280 298 316 327 336 328 320 302 287
Height
1497 1498 1499 1500 1501 1502 1503 1504 1504 1503 1503 1503 1504 1504 1504 1504 1503 1502 1502 1501 1500 1499 1498 1497 1496 1495 1494 1493 1492 1490 1489 1487 1486 1484 1483 1481 1480 1478
1493 1494 1495 1496 1497 1498 1499 1500 1501 1501 1500 1500 1500 1501 1501 1500 1500 1499 1499 1498 1497 1496 1495 1494 1493 1492 1490 1490 1488 1487 1486 1484 1482 1481 1479 1478 1476 1475
1489 1490 1491 1492 1493 1494 1495 1496 1497 1497 1497 1497 1497 1497 1497 1497 1496 1496 1495 1495 1494 1492 1491 1490 1489 1488 1487 1486 1485 1484 1482 1480 1479 1477 1476 1474 1472 1471
1485 1486 1487 1488 1489 1490 1491 1492 1492 1493 1494 1493 1493 1493 1493 1493 1493 1493 1492 1491 1490 1489 1488 1487 1486 1485 1484 1482 1481 1480 1479 1477 1475 1474 1472 1470 1469 1467
1483 1483 1484 1484 1485 1486 1487 1488 1489 1490 1490 1490 1490 1490 1490 1490 1490 1489 1489 1488 1487 1486 1485 1484 1483 1482 1480 1479 1478 1477 1475 1474 1472 1470 1468 1467 1465 1463
1480 1480 1481 1481 1482 1483 1483 1484 1485 1486 1486 1486 1486 1486 1486 1486 1486 1485 1484 1484 1483 1482 1482 1481 1480 1478 1477 1476 1475 1474 1472 1470 1468 1466 1465 1463 1461 1460
1477 1477 1478 1478 1479 1480 1480 1481 1481 1481 1482 1482 1482 1482 1482 1482 1482 1481 1481 1480 1479 1479 1478 1477 1476 1475 1474 1473 1472 1470 1469 1467 1465 1463 1461 1460 1458 1456
1473 1474 1474 1475 1475 1476 1476 1477 1478 1478 1478 1478 1478 1478 1478 1479 1479 1478 1477 1476 1474 1475 1474 1473 1472 1471 1470 1470 1469 1467 1466 1464 1462 1460 1458 1456 1455 1453
1469 1470 1471 1472 1472 1472 1472 1473 1473 1474 1475 1475 1474 1474 1475 1475 1475 1474 1473 1472 1471 1471 1470 1468 1468 1467 1467 1466 1465 1464 1462 1461 1459 1457 1455 1453 1451 1449
1466 1466 1467 1468 1468 1468 1468 1469 1469 1469 1470 1470 1471 1471 1471 1472 1471 1471 1470 1469 1468 1468 1467 1465 1464 1464 1463 1462 1461 1460 1459 1457 1456 1454 1452 1450 1448 1446
1462 1463 1463 1464 1464 1465 1465 1465 1465 1465 1466 1466 1467 1467 1467 1467 1467 1467 1466 1465 1463 1463 1464 1462 1461 1460 1459 1458 1458 1457 1455 1454 1452 1450 1448 1446 1444 1442
1458 1458 1459 1460 1460 1461 1461 1461 1460 1461 1462 1462 1462 1462 1463 1463 1463 1462 1462 1462 1460 1459 1459 1459 1458 1457 1455 1454 1454 1453 1452 1450 1449 1447 1445 1443 1441 1438
1454 1454 1455 1456 1456 1457 1457 1457 1457 1458 1458 1458 1458 1458 1458 1458 1458 1458 1458 1457 1457 1456 1457 1456 1455 1454 1454 1451 1450 1449 1448 1446 1445 1443 1441 1439 1437 1435
1450 1450 1451 1452 1452 1453 1453 1453 1454 1454 1454 1454 1453 1453 1453 1453 1454 1453 1453 1453 1453 1453 1453 1453 1452 1451 1450 1448 1446 1445 1444 1443 1441 1439 1438 1436 1435 1433
1446 1446 1447 1447 1448 1448 1449 1449 1449 1449 1449 1449 1449 1450 1450 1450 1449 1449 1449 1449 1449 1449 1449 1448 1448 1447 1446 1445 1443 1441 1440 1439 1438 1436 1435 1433 1431 1429
1442 1442 1443 1443 1444 1444 1445 1445 1445 1446 1446 1446 1446 1446 1446 1446 1445 1445 1445 1444 1444 1444 1444 1444 1444 1443 1442 1441 1440 1438 1437 1436 1434 1433 1432 1430 1429 1427
1438 1438 1439 1439 1440 1440 1440 1441 1441 1442 1442 1442 1442 1442 1441 1441 1441 1441 1441 1441 1440 1439 1439 1440 1440 1440 1439 1438 1437 1435 1434 1433 1432 1430 1428 1427 1426 1424
1435 1434 1435 1435 1435 1436 1436 1437 1437 1437 1438 1438 1437 1437 1437 1437 1437 1437 1437 1437 1436 1436 1436 1436 1435 1435 1435 1434 1434 1432 1431 1430 1429 1427 1426 1424 1422 1421
1430 1430 1431 1431 1431 1432 1432 1433 1433 1434 1434 1434 1434 1434 1434 1433 1433 1433 1433 1433 1432 1432 1432 1432 1432 1431 1430 1429 1429 1430 1428 1426 1425 1424 1423 1421 1419 1418
1426 1426 1426 1427 1427 1428 1428 1429 1429 1429 1430 1430 1430 1430 1430 1430 1429 1429 1429 1429 1429 1428 1428 1428 1427 1427 1427 1427 1425 1425 1425 1424 1422 1421 1420 1419 1418 1416
1421 1422 1422 1423 1423 1424 1424 1424 1425 1425 1426 1426 1426 1426 1426 1426 1425 1425 1425 1425 1425 1425 1424 1424 1424 1424 1424 1424 1423 1421 1421 1421 1420 1419 1417 1416 1414 1413
1417 1417 1418 1418 1419 1419 1420 1420 1421 1421 1421 1421 1421 1421 1422 1422 1422 1421 1421 1421 1421 1421 1421 1421 1421 1420 1420 1420 1419 1418 1418 1418 1417 1417 1416 1415 1413 1411
1413 1413 1414 1414 1414 1415 1415 1416 1416 1416 1417 1417 1417 1417 1417 1418 1418 1418 1418 1418 1418 1417 1417 1417 1417 1417 1416 1416 1416 1415 1415 1415 1414 1413 1413 1413 1412 1410